STARLINK-11102, 60065

Orbit data source: Space-Track

STARLINK-11102, 60065 is a payload satellite owned by SpaceX/Seattle (US) in LEO that was launched on Wed, 19 Jun 2024 UTC via an FALCON 9 launch vehicle from the Air Force Western Test Range (AFWTR). Payload-class satellites include a variety of spacecraft equipped with specific instruments for various scientific and technological missions. These include communications satellites like Starlink; space stations such as the ISS; scientific satellites like the Hubble; Earth observation satellites from companies like Planet Labs, Umbra, and HawkEye 360; GPS; miniature CubeSats for education and research; and military/defense satellites.

Loading next visibility...
Identifier
60065, 2024-113G
Orbit
LEO
Last TLE update
7 hours ago
Origin
Manufacturer
SpaceX/Seattle
Mission
Operational Commercial Communications
Bus & Motor
STARLINK V2M, Unknown motor
Mass
730 kg wet, ~700 kg dry
Launch date (UTC)
2024-06-19 (11 months ago)
Launch vehicle
FALCON 9
Launch site
Air Force Western Test Range (AFWTR)
Object type
Payload
Rocket body
Debris
Shape & HBR
Box + 2 Pan, 29 m
Radar Cross Section
33.884 m², Large (>1 m²)

Expand to show TLE details & history

TLE from 7 hours ago
0 STARLINK-11102
1 60065U 24113G   25131.57616596 -.00000128  00000-0  38027-5 0  9992
2 60065  53.1595 240.3178 0001228  72.8008 287.3144 15.69704076 52304
Epoch: 2025-05-11T13:49Z
Definitive object data (Epoch: 2025-05-11T13:49:40.738Z)
Latitude
-0.00007°
Longitude
163.29638°
Altitude
360.413 km
Speed
7.694 km/s
True Right ascension
16h 01m 16s
True Declination
0° 00' 00"
Sunlit
Object was in full shadow at TLE epoch
Visualization TLE readout
Latitude
52.89507°
Longitude
-98.06865°
Altitude
365.438 km
Speed
7.697 km/s
Apparent Right ascension
19h 17m 15s
Apparent Declination
11° 17' 51"
Sunlit
Object is in daylight
Visualization observer readout
Local Sidereal Time
04:39:50
Azimuth
315.683° NNW
Elevation
-27.122°
Doppler factor
1
Orbital elements
Apogee altitude
360.832 km
Perigee altitude
359.177 km
Semi-major axis
6,738.141 km
Eccentricity
0.0001228
Inclination
53.1595°
RAAN
240.3178°
Arg. of periapsis
72.8008°
True anomaly
287.30097°
Mean anomaly
287.3144°
Eccentric anomaly
287.30768°
Mean motion
3.92404 °/min
BSTAR
0.0000038027
Orbital period
91.74 mins
Loading maneuver chart data...
Loading SW <> Apogee altitude chart data...
Loading historical data...
Loading historical data...
Loading historical data...
Loading historical data...
Loading historical data...
Loading historical data...
Loading historical data...

STARLINK-11102 Visibility forecast

Observer location: undefined°, undefined°

Span
Click to sort rows by Start time (UTC) header in descending order
Start Az.
Max El. time (UTC)
Max El. Az.
Max El.
End time (UTC)
End Az.
5 mins2025-05-12 09:52:50.182Z225.779° WSW2025-05-12 09:54:50.182Z191.373° SSW44.335°2025-05-12 09:57:50.182Z51.563° ENE
5 mins2025-05-12 16:16:50.182Z319.585° NNW2025-05-12 16:19:50.182Z48.574° ENE36.716°2025-05-12 16:21:50.182Z109.216° ESE
|